Flag for Germany Weather past 2 weeks in Altenburg, Thuringia, Germany

Now
61 °F

Sunny.


Feels Like: 61 °F
Forecast: 40 / 71 °F
Wind: 5 mph from North

Location: Altenburg Nobitz


UV Index: 3 (Moderate)

Visibility: 10 mi


Pressure: 30.07 "Hg

Humidity: 59%

Dew point: 46 °F

Location of AltenburgLocation

Historic Weather in Altenburg

°F

Altenburg temperature yesterday

Maximum temperature yesterday: 68 °F (at 3:20 PM)
Minimum temperature yesterday: 54 °F (at 8:20 AM)
Average temperature yesterday: 63 °F

Past Weeks' High & Low Weather Summary

 TemperatureHumidityPressure
High68 °F (Apr 22, 3:20 PM)100% (Apr 19, 9:20 AM)30.45 "Hg (Apr 19, 9:20 AM)
Low37 °F (Apr 19, 9:20 AM)31% (Apr 17, 4:50 PM)29.68 "Hg (Apr 21, 12:50 PM)
Average53 °F63%30.03 "Hg
* Reported Apr 8 7:20 PM — Apr 23 7:50 PM, Altenburg, Weather by CustomWeather, © 2014

Note: Actual official high and low records may vary slightly from our data, if they occured in-between our weather recording intervals... More about our weather records

Advertising

Historic Weather Conditions — Data for Previous 24 hours

 ConditionsComfort  
Time TempWeatherWind HumidityBarometerVisibility
7:50 PM
Apr 23
61 °FSunny.5 mph59%30.07 "Hg10 mi
7:20 PM64 °FSunny.6 mph56%30.07 "Hg10 mi
6:50 PM66 °FPassing clouds.6 mph52%30.07 "HgN/A
6:20 PM66 °FSunny.6 mph49%30.07 "Hg10 mi
5:50 PM68 °FSunny.6 mph46%30.07 "Hg10 mi
5:20 PM68 °FPassing clouds.5 mph43%30.07 "HgN/A
4:50 PM68 °FPassing clouds.6 mph43%30.09 "HgN/A
4:20 PM68 °FPassing clouds.7 mph46%30.09 "HgN/A
3:50 PM68 °FScattered clouds.5 mph46%30.09 "HgN/A
3:20 PM68 °FScattered clouds.5 mph46%30.09 "HgN/A
2:50 PM68 °FScattered clouds.5 mph49%30.09 "HgN/A
2:20 PM68 °FScattered clouds.6 mph46%30.09 "HgN/A
1:50 PM66 °FScattered clouds.3 mph52%30.09 "HgN/A
1:20 PM66 °FSunny.3 mph49%30.12 "Hg10 mi
12:50 PM64 °FPassing clouds.7 mph52%30.12 "HgN/A
12:20 PM64 °FPassing clouds.5 mph52%30.12 "HgN/A
11:50 AM64 °FPassing clouds.3 mph56%30.12 "HgN/A
11:20 AM64 °FSunny.2 mph60%30.12 "Hg10 mi
10:50 AM63 °FPassing clouds.3 mph64%30.12 "HgN/A
10:20 AM61 °FPassing clouds.5 mph68%30.12 "HgN/A
9:50 AM59 °FPassing clouds.3 mph72%30.12 "HgN/A
9:20 AM57 °FPassing clouds.5 mph72%30.09 "HgN/A
8:50 AM55 °FPassing clouds.5 mph72%30.09 "HgN/A
8:20 AM54 °FSunny.6 mph77%30.09 "Hg10 mi
Weather by CustomWeather, © 2014

See weather overview